Regional Weather Roundup
Issued by NWS Green Bay, WI

Home | Current Version | Previous Version | Text Only | Print | Product List | Glossary On
Versions: 1 2 3 4 5 6 7 8 9 10 11 12 13 14 15 16 17 18 19 20 21 22 23 24 25 26 27 28 29 30 31 32 33 34 35 36 37 38 39 40 41 42 43 44 45 46 47 48 49 50
000
ASUS43 KGRB 311400
RWRGRB

NORTH-CENTRAL AND NORTHEAST WISCONSIN REGIONAL WEATHER ROUNDUP
NATIONAL WEATHER SERVICE GREEN BAY WI
900 AM CDT FRI JUL 31 2015

WIZ005-009-010>012-018-019-311500-
NORTH CENTRAL WISCONSIN

CITY           SKY/WX    TMP DP  RH WIND       PRES   REMARKS
IRONWOOD       SUNNY     64  57  77 W14G21    29.92S
MANITOWISH WTR NOT AVBL
ARBOR VITAE    NOT AVBL
EAGLE RIVER    NOT AVBL
LAND O LAKES   NOT AVBL
RHINELANDER    SUNNY     69  56  62 W10       29.96S
PHILLIPS       SUNNY     66  56  69 NW8       29.98R
ANTIGO         NOT AVBL
TOMAHAWK       NOT AVBL
MERRILL        NOT AVBL
$$

WIZ013-073-311500-
NORTHEAST WISCONSIN

CITY           SKY/WX    TMP DP  RH WIND       PRES   REMARKS
IRON MOUNTAIN  SUNNY     71  56  58 W12       29.88S
MARINETTE      MOSUNNY   70  57  64 W3        29.88S
$$

WIZ017-030-035>037-045-311500-
CENTRAL WISCONSIN

CITY           SKY/WX    TMP DP  RH WIND       PRES   REMARKS
MEDFORD        NOT AVBL
WAUSAU         SUNNY     70  56  61 NW14      29.96S
MOSINEE        MOSUNNY   70  57  64 NW13G22   29.99R
MARSHFIELD     SUNNY     71  54  54 NW16G23   30.01R
WISC RAPIDS    SUNNY     72  56  57 NW14      30.00S
STEVENS POINT  NOT AVBL
WAUPACA        NOT AVBL
SHAWANO        NOT AVBL
CLINTONVILLE   SUNNY     72  55  56 NW12G18   29.94R
$$

WIZ038-039-048-051-311500-
FOX VALLEY

CITY           SKY/WX    TMP DP  RH WIND       PRES   REMARKS
NWS GREEN BAY  SUNNY     73  61  65 W15G21    29.92F
APPLETON       MOSUNNY   72  57  60 W14       29.95F
OSHKOSH        SUNNY     74  58  57 W14G24    29.95F
FOND DU LAC    SUNNY     75  60  59 W13       29.96F
$$

WIZ022-050-052-311500-
EAST CENTRAL WISCONSIN

CITY           SKY/WX    TMP DP  RH WIND       PRES   REMARKS
STURGEON BAY   SUNNY     72  57  60 W12       29.91F
MANITOWOC      NOT AVBL
SHEBOYGAN      SUNNY     76  61  59 W6        29.94F
$$

LMZ563-521-522-541>543-311500-
LAKESHORE

STATION/POSITION TIME  TEMP    WIND        PRES    VSBY  WAVE
                       AIR SEA DIR/SP/G                  HT/PER
                 (UTC) (F)     (DEG/KT/KT) (MB)    (MI)  (FT/S)
SHEBOYGAN LKSHOR 1300   72     260/ 10/ 14 1014.0F
KEWAUNEE LKSHORE 1300   70     280/  7/ 13 1012.4S
ALGOMA MARINA    1312          270/  6/ 10   N/A
NORTHPORT PIER   1300   71     280/  5/ 10 1011.2S
N MID LAKE BUOY  1250   69 68  250/ 14/ 16 1010.3F         2/ 4
S GREEN BAY BUOY 1300   65 66  250/ 12/ 14 1014.0S
SISTER BAY LKSHO 1314   74     300/ 15/ 19   N/A
CHAMBERS ISLAND  1300   67     230/  7/ 12 1011.5F
MENOMINEE LKSHOR 1300   68     260/  8/ 13 1012.7S
$$



USA.gov is the U.S. government's official web portal to all federal, state and local government web resources and services.